Weather in Valmiera

Latvia     57˚31′57″N   25˚25′17″E
temp.,
°C
wind,
m/s
gust,
m/s
humid.,
%
clouds,
%
prec.,
mm/h
press.,
hPa
HPBL,
m
2 december, wed
wed223:00−2˚s2893100 0.0 1031332
02:00−2˚s269296 0.0 1032216
05:00−4˚sse259381 0.0 1031176
08:00−4˚sse259090 0.0 1032158
11:00−3˚s378165 0.0 1032370
14:00−2˚sse258033 0.0 1031453
17:00−4˚se269281 0.0 1029273
20:00−3˚se358490 0.0 1028550
3 december, thu
thu323:00−3˚se368497 0.0 1027544
02:00−2˚ese368895 0.0 1025333
05:00−2˚ese268895 0.0 1023572
08:00−2˚se368197 0.1 1022564
11:00−3˚sse388389 0.0 1021588
14:00−2˚sse478191 0.0 1021761
17:00−2˚sse4882100 0.1 1019891
20:00−1˚sse4984100 0.1 1019839
4 december, fri
fri423:00−1˚se4108299 0.0 1018782
02:00sse4128299 0.0 1017812
05:00+1˚sse51282100 0.0 1016837
08:00+1˚se51281100 0.0 1016783
11:00+2˚sse51381100 0.0 1016806
14:00+3˚sse51384100 0.0 1016838
17:00+3˚sse41385100 0.0 1015848
20:00+3˚sse41485100 0.0 1015829
5 december, sat
sat523:00+3˚sse41286100 0.0 1016887
02:00+3˚sse41387100 0.0 1017895
05:00+3˚sse3139087 0.0 1017652
08:00+4˚sse4138786 0.0 1018756
11:00+5˚sse5138495 0.0 1019799
14:00+5˚sse4138570 0.0 1020719
17:00+4˚se4139032 0.0 1020607
20:00+3˚se3139036 0.0 1022580
6 december, sun
sun623:00+4˚sse4138595 0.0 1022730
02:00+4˚sse4138692 0.0 1023721
05:00+4˚sse4118295 0.0 1023885
08:00+4˚se5128198 0.0 1023822
11:00+4˚sse5118079 0.0 1025895
14:00+3˚se5107986 0.0 1025787
17:00+1˚se4128371 0.0 1025656
20:00se4138040 0.0 1026609